Marathon, FL

2:19 PM EDT on July 26, 2017 (GMT -0400)
Little Venice House Rooftop | | Change Station

Elev 8 ft 24.73 °N, 81.03 °W | Updated 4 seconds ago

Mostly Cloudy
Mostly Cloudy
86.8 °F
Feels Like 102 °F
N
0.0
Wind Variable Wind from SE
Gusts 7.0 mph

Today
High -- | Low -- °F
--% Chance of Precip.
Yesterday
High -- | Low -- °F
Precip. -- in
Pressure 30.08 in
Visibility 10.0 miles
Clouds Scattered Clouds 2200 ft
Scattered Clouds 5000 ft
Mostly Cloudy 22000 ft
Heat Index 102 °F
Dew Point 80 °F
Humidity 79%
Rainfall 0.00 in
Snow Depth Not available.
6:49 AM 8:11 PM
Waxing Crescent, 14% visible
METAR KNQX 261753Z 35004KT 10SM SCT022 SCT050 BKN220 29/27 A3008 RMK AO2 RAB05E49 SLP184 T2 SET P0041 60042 T02940267 10317 20267 58003 $
Pressure 30.08 in
Visibility 10.0 miles
Clouds Scattered Clouds 2200 ft
Scattered Clouds 5000 ft
Mostly Cloudy 22000 ft
Heat Index 102 °F
Dew Point 80 °F
Humidity 79%
Rainfall 0.00 in
Snow Depth Not available.
6:49 AM 8:11 PM
Waxing Crescent, 14% visible
METAR KNQX 261753Z 35004KT 10SM SCT022 SCT050 BKN220 29/27 A3008 RMK AO2 RAB05E49 SLP184 T2 SET P0041 60042 T02940267 10317 20267 58003 $

Get Severe Weather Alerts

Thanks for signing up!

Be on the lookout for a verification email in your inbox.

You'll start receiving the daily forecast at 6 AM.

×

10-Day Weather Forecast

Almanac

Astronomy

Jul. 26, 2017 Rise Set
Actual Time
Civil Twilight
Nautical Twilight
Astronomical Twilight
Moon
Length of Visible Light
Length of Day
Tomorrow will be .
, % of the Moon is Illuminated

Today's Extremes

State Highs State Lows

Community

WunderPhotos

Category 6

Welcome to Category 6. This is the collective home for Weather Underground's featured writeups by Dr. Jeff Masters (right), Bob Henson (left), Chris Burt, and other regular contributors.

Nearby

Air Quality

  Air Quality AQ Index Pollutant
Not available.

Snow Depth

Station Depth Elevation

Earthquake Activity

City Distance Mag. Time & Date
Minimum magnitude displayed is 2.5.

Coastal Water Temperatures

Place Temperature

Stations

Nearby Weather Stations

Station Location Temp. Windchill Dew Point Humidity Wind Precip. Elev Updated Type
                   

Watches & Warnings

There are currently no watches in effect.